Overview Statistics Trail Chart Weather Telemetry Raw packets
 

This is the latest recevied weather packets stored in our database for station/object SV9TNF-56. If no packets are shown the sender has not sent any weather packets the latest 10 day(s).

<< 46 47 48 49 50 51 52 >>
Time Temp. Humidity Pressure Rain* Wind** Luminosity Snow
1788347924 26.67° C 57% 1011.9 hPa 0 mm 14.75 m/s, 151° - -
1788347623 26.67° C 57% 1011.9 hPa 0 mm 8.05 m/s, 206° - -
1788347323 26.67° C 55% 1011.9 hPa 0 mm 28.16 m/s, 222° - -
1788347023 26.67° C 57% 1011.9 hPa 0 mm 8.05 m/s, 138° - -
1788346723 26.67° C 55% 1011.9 hPa 0 mm 6.71 m/s, 107° - -
1788346423 26.67° C 55% 1011.9 hPa 0 mm 6.71 m/s, 282° - -
1788346123 26.67° C 56% 1011.9 hPa 0 mm 17.88 m/s, 164° - -
1788345823 26.67° C 54% 1011.9 hPa 0 mm 8.05 m/s, 192° - -
1788345523 26.67° C 57% 1011.5 hPa 0 mm 18.33 m/s, 162° - -
1788345223 26.67° C 56% 1011.5 hPa 0 mm 16.99 m/s, 151° - -
1788344923 26.67° C 56% 1011.5 hPa 0 mm 16.99 m/s, 172° - -
1788344623 26.67° C 58% 1011.9 hPa 0 mm 19.67 m/s, 217° - -
1788344323 26.67° C 57% 1011.5 hPa 0 mm 14.75 m/s, 189° - -
1788344022 26.67° C 53% 1011.9 hPa 0 mm 16.54 m/s, 232° - -
1788343723 26.67° C 52% 1011.5 hPa 0 mm 21.01 m/s, 144° - -
1788343422 26.67° C 49% 1011.9 hPa 0 mm 15.2 m/s, 272° - -
1788343122 26.67° C 51% 1011.9 hPa 0 mm 14.31 m/s, 204° - -
1788342822 26.67° C 53% 1011.5 hPa 0 mm 17.88 m/s, 222° - -
1788342522 26.67° C 54% 1011.9 hPa 0 mm 16.54 m/s, 152° - -
1788342222 26.67° C 54% 1011.9 hPa 0 mm 12.52 m/s, 190° - -
1788341922 26.11° C 57% 1011.9 hPa 0 mm 16.99 m/s, 143° - -
1788341622 26.11° C 56% 1011.9 hPa 0 mm 12.07 m/s, 137° - -
1788341321 26.11° C 56% 1011.5 hPa 0 mm 14.31 m/s, 180° - -
1788341022 26.11° C 59% 1011.5 hPa 0 mm 16.99 m/s, 144° - -
1788340721 26.11° C 58% 1011.9 hPa 0 mm 19.67 m/s, 143° - -

* Rain latest hour (hover to see other rain measurements)
** Current wind speed in m/s (hover to see current wind gust speed)